This is the latest recevied weather packets stored in our database for station/object DG6YGE-6. If no packets are shown the sender has not sent any weather packets the latest 1 day(s).
| Time | Temp. | Humidity | Pressure | Rain* | Wind** | Luminosity | Snow |
|---|---|---|---|---|---|---|---|
| 1777945151 | 13.89° C | 94% | 1009.6 hPa | 0.51 mm | 0.89 m/s, 200° | 0 W/m² | - |
| 1777944550 | 13.89° C | 94% | 1009.8 hPa | 0.51 mm | 0.89 m/s, 216° | 0 W/m² | - |
| 1777943951 | 13.89° C | 94% | 1009.9 hPa | 0.51 mm | 0.45 m/s, 182° | 0 W/m² | - |
| 1777943350 | 13.89° C | 94% | 1009.9 hPa | 0.51 mm | 0 m/s | 0 W/m² | - |
| 1777942751 | 13.89° C | 94% | 1010 hPa | 0.25 mm | 0.45 m/s, 175° | 0 W/m² | - |
| 1777942151 | 14.44° C | 94% | 1010 hPa | 0.25 mm | 1.34 m/s, 171° | 0 W/m² | - |
| 1777941551 | 14.44° C | 94% | 1010.2 hPa | 0.25 mm | 1.34 m/s, 169° | 0 W/m² | - |
| 1777940951 | 14.44° C | 94% | 1010.2 hPa | 0.25 mm | 1.34 m/s, 180° | 0 W/m² | - |
| 1777940351 | 14.44° C | 94% | 1010.3 hPa | 0 mm | 0.89 m/s, 171° | 0 W/m² | - |
| 1777939751 | 14.44° C | 94% | 1010.4 hPa | 0 mm | 0.89 m/s, 173° | 0 W/m² | - |
| 1777939151 | 14.44° C | 93% | 1010.5 hPa | 0 mm | 0.89 m/s, 144° | 0 W/m² | - |
| 1777938550 | 14.44° C | 93% | 1010.6 hPa | 0 mm | 0.45 m/s, 142° | 0 W/m² | - |
| 1777937950 | 14.44° C | 93% | 1010.7 hPa | 0 mm | 0.89 m/s, 142° | 0 W/m² | - |
| 1777937350 | 14.44° C | 93% | 1010.7 hPa | 0.25 mm | 0.89 m/s, 134° | 0 W/m² | - |
| 1777936750 | 14.44° C | 93% | 1010.8 hPa | 0.25 mm | 0.89 m/s, 182° | 0 W/m² | - |
| 1777936150 | 14.44° C | 93% | 1011 hPa | 0.51 mm | 0.89 m/s, 182° | 0 W/m² | - |
| 1777935550 | 14.44° C | 93% | 1011.1 hPa | 0.51 mm | 1.34 m/s, 140° | 0 W/m² | - |
| 1777934950 | 14.44° C | 93% | 1011 hPa | 0.51 mm | 0 m/s | 0 W/m² | - |
| 1777934350 | 14.44° C | 93% | 1011.2 hPa | 0.51 mm | 0 m/s | 0 W/m² | - |
| 1777933750 | 14.44° C | 93% | 1011.2 hPa | 0.51 mm | 0 m/s | 0 W/m² | - |
* Rain latest hour (hover to see other rain measurements)
** Current wind speed in m/s (hover to see current wind gust speed)